Location: Lussas
(44.6119°N, 4.4726°E)
Time: 12:28:07
(UTC+00:00)

Meteor 1-4 Rocket - Pass Details

Date: 26 November 2020
Orbit: 449 x 500 km, 81.2° (Epoch: 26 January)

Event Time Altitude Azimuth Distance (km) Brightness Sun altitude
Exits shadow 04:32:24 26° 37° (NE) 921 4.2 -24.6°
Maximum altitude 04:33:30 33° 74° (ENE) 785 4.1 -24.4°
Drops below altitude 10° 04:36:38 10° 140° (SE) 1,576 5.7 -23.8°
Sets 04:38:50 0° 151° (SSE) 2,443 6.6 -23.4°
